1487775600.28,972,11.06,72404.5,-3.43,-5.73,-5.77,0,*5C
1487775601.47,973,11.06,72416.8,-3.45,-5.51,-5.51,0,*5F
1487775602.68,974,11.06,72418.3,-3.45,-5.39,-5.27,0,*57
1487775603.92,975,11.06,72410.0,-3.45,-5.11,-5.03,0,*5A
1487775605.09,976,11.06,72412.0,-3.45,-4.99,-4.99,0,*5A
1487775606.34,977,11.06,72410.0,-3.43,-4.93,-4.93,0,*5D
1487775607.57,978,11.13,72426.5,-3.43,-4.93,-4.99,0,*58
1487775608.81,979,11.13,72424.0,-3.39,-5.07,-5.07,0,*5E
1487775610.04,980,11.06,72422.8,-3.43,-5.07,-4.99,0,*53
1487775611.3,981,11.13,72420.3,-3.43,-4.93,-4.85,0,*53
1487775612.52,982,11.06,72422.0,-3.45,-4.93,-4.93,0,*51
1487775613.76,983,11.06,72424.0,-3.45,-5.03,-5.03,0,*50
1487775615.01,984,11.06,72420.5,-3.43,-4.93,-4.93,0,*51
1487775616.25,985,11.13,72434.3,-3.43,-5.07,-4.99,0,*56
1487775617.45,986,11.13,72428.8,-3.43,-4.99,-4.99,0,*53
1487775618.68,987,11.13,72434.3,-3.43,-4.99,-4.93,0,*58
1487775619.93,988,11.06,72440.3,-3.43,-4.85,-4.85,0,*5D
1487775621.17,989,11.13,72430.3,-3.39,-4.89,-4.89,0,*51
1487775622.4,990,11.13,72440.3,-3.39,-4.89,-4.81,0,*51
1487775623.67,991,11.06,72438.5,-3.37,-4.89,-4.89,0,*56
1487775624.9,992,11.06,72426.0,-3.39,-4.89,-4.89,0,*5B
1487775626.14,993,11.06,72428.8,-3.39,-4.89,-4.89,0,*5A
1487775627.37,994,11.13,72448.3,-3.39,-4.89,-4.89,0,*5D
1487775628.63,995,11.13,72450.8,-3.37,-4.81,-4.77,0,*5B
1487775629.86,996,11.13,72450.0,-3.39,-4.77,-4.69,0,*50
1487775631.1,997,11.06,72448.8,-3.39,-4.89,-4.89,0,*5E
1487775632.33,998,11.13,72452.3,-3.39,-5.03,-4.93,0,*59
1487775633.59,999,11.06,72442.0,-3.37,-4.89,-4.93,0,*55
1487775634.84,1000,11.06,72446.3,-3.39,-4.89,-4.81,0,*60
1487775636.07,1001,11.06,72440.5,-3.39,-4.81,-4.81,0,*69
1487775637.34,1002,11.06,72432.8,-3.37,-4.89,-4.93,0,*6F
1487775638.53,1003,11.06,72428.0,-3.39,-5.35,-5.35,0,*6B
1487775639.77,1004,11.06,72426.8,-3.39,-5.11,-5.03,0,*6F
1487775641.03,1005,11.13,72428.8,-3.37,-4.93,-4.93,0,*63
1487775642.27,1006,11.06,72422.3,-3.39,-4.93,-4.89,0,*65
1487775643.54,1007,11.13,72424.0,-3.37,-4.89,-4.81,0,*69
1487775644.81,1008,11.13,72436.8,-3.37,-4.89,-4.81,0,*66
1487775646.06,1009,11.13,72440.8,-3.35,-5.07,-5.03,0,*69
1487775647.34,1010,11.06,72446.8,-3.37,-5.23,-5.19,0,*6E
1487775648.62,1011,11.06,72444.5,-3.37,-5.07,-5.07,0,*66
1487775649.9,1012,11.13,72444.5,-3.37,-5.07,-5.03,0,*61
1487775651.17,1013,11.13,72448.8,-3.37,-5.19,-5.07,0,*6B
1487775652.45,1014,11.06,72456.5,-3.37,-5.03,-5.03,0,*63
1487775653.72,1015,11.06,72458.3,-3.37,-5.11,-5.19,0,*6A
1487775655.0,1016,11.06,72450.0,-3.37,-5.31,-5.23,0,*62
1487775656.25,1017,11.06,72444.8,-3.37,-5.35,-5.23,0,*67
1487775657.53,1018,11.06,72442.0,-3.37,-5.31,-5.23,0,*6C
1487775658.81,1019,11.13,72440.0,-3.37,-5.19,-5.11,0,*66
1487775660.08,1020,11.06,72430.5,-3.37,-5.19,-5.11,0,*6C
1487775661.35,1021,11.06,72426.3,-3.37,-5.31,-5.31,0,*65
1487775662.63,1022,11.06,72426.5,-3.37,-5.31,-5.31,0,*66
1487775663.88,1023,11.13,72428.5,-3.39,-5.31,-5.19,0,*63
1487775665.09,1024,11.13,72432.3,-3.39,-5.43,-5.23,0,*68
1487775666.35,1025,11.06,72428.0,-3.39,-5.07,-5.07,0,*6F
1487775667.61,1026,11.13,72428.8,-3.37,-4.93,-4.89,0,*69
1487775668.86,1027,11.06,72424.5,-3.39,-5.07,-5.03,0,*69
1487775670.13,1028,11.13,72432.3,-3.37,-5.03,-4.93,0,*64
1487775671.38,1029,11.06,72438.8,-3.39,-5.07,-5.03,0,*67
1487775672.6,1030,11.06,72440.0,-3.39,-5.35,-5.31,0,*6F
1487775673.82,1031,11.06,72438.8,-3.37,-5.43,-5.55,0,*63
1487775675.04,1032,11.06,72436.0,-3.39,-5.61,-5.55,0,*6E
1487775676.23,1033,11.13,72442.5,-3.39,-5.43,-5.55,0,*6F
1487775677.42,1034,11.13,72434.5,-3.39,-5.35,-5.43,0,*6E
1487775678.64,1035,11.13,72422.0,-3.43,-5.39,-5.51,0,*6D
1487775679.9,1036,11.06,72412.8,-3.43,-5.65,-5.73,0,*67
1487775681.11,1037,11.06,72400.5,-3.43,-5.39,-5.47,0,*68
1487775682.36,1038,11.13,72396.0,-3.43,-5.35,-5.27,0,*6D
1487775683.57,1039,11.06,72396.8,-3.43,-5.39,-5.39,0,*6F
1487775684.79,1040,11.06,72380.0,-3.43,-5.47,-5.39,0,*68
1487775686.0,1041,11.06,72366.0,-3.43,-5.39,-5.35,0,*6C
1487775687.28,1042,11.13,72372.8,-3.43,-5.23,-5.23,0,*63
1487775688.55,1043,11.13,72380.3,-3.43,-5.27,-5.15,0,*63
1487775689.82,1044,11.06,72392.0,-3.43,-5.15,-5.15,0,*65
1487775691.06,1045,11.13,72398.3,-3.43,-5.35,-5.27,0,*67
1487775692.28,1046,11.13,72410.8,-3.43,-5.39,-5.39,0,*67
1487775693.49,1047,11.13,72418.0,-3.43,-5.35,-5.39,0,*6A
1487775694.7,1048,11.13,72424.0,-3.43,-5.39,-5.39,0,*69
1487775695.95,1049,11.13,72434.0,-3.39,-5.85,-5.81,0,*61
1487775697.19,1050,11.06,72456.5,-3.39,-5.81,-5.81,0,*6D
1487775698.44,1051,11.13,72458.8,-3.39,-5.89,-5.85,0,*60
1487775699.68,1052,11.13,72448.8,-3.39,-5.85,-5.81,0,*6B
1487775700.9,1053,11.06,72436.0,-3.43,-6.13,-6.13,0,*63
1487775702.16,1054,11.06,72418.8,-3.43,-6.27,-6.27,0,*64
1487775703.4,1055,11.06,72412.3,-3.43,-6.43,-6.27,0,*67
1487775704.64,1056,11.13,72410.8,-3.43,-6.43,-6.19,0,*69
1487775705.9,1057,11.06,72408.3,-3.43,-6.27,-5.93,0,*6B
1487775707.12,1058,11.06,72422.0,-3.39,-6.13,-5.81,0,*6D
1487775708.34,1059,11.13,72426.0,-3.43,-6.51,-6.05,0,*68
1487775709.55,1060,11.06,72416.8,-3.39,-6.13,-5.81,0,*66
1487775710.79,1061,11.13,72420.8,-3.43,-6.05,-5.77,0,*64
1487775712.03,1062,11.13,72418.0,-3.45,-6.19,-5.89,0,*6D
1487775713.24,1063,11.13,72426.8,-3.45,-5.97,-5.77,0,*68
1487775714.49,1064,11.06,72424.8,-3.45,-5.93,-5.69,0,*64
1487775715.7,1065,11.13,72412.0,-3.45,-6.05,-5.81,0,*6F
1487775716.91,1066,11.13,72402.5,-3.45,-5.97,-5.81,0,*64
1487775718.16,1067,11.06,72404.8,-3.45,-5.93,-5.81,0,*61
1487775719.42,1068,11.06,72424.8,-3.47,-5.89,-5.81,0,*67
1487775720.69,1069,11.13,72406.3,-3.47,-5.69,-5.65,0,*62
1487775721.93,1070,11.13,72422.8,-3.49,-5.81,-5.69,0,*6E
1487775723.17,1071,11.06,72416.3,-3.49,-5.81,-5.69,0,*6F
1487775724.42,1072,11.13,72412.0,-3.49,-5.85,-5.85,0,*6A
1487775725.67,1073,11.13,72418.8,-3.49,-5.81,-5.73,0,*66
1487775726.91,1074,11.13,72418.8,-3.49,-5.73,-5.61,0,*6F
1487775728.15,1075,11.13,72418.3,-3.49,-5.61,-5.61,0,*6D
1487775729.39,1076,11.13,72424.8,-3.49,-5.73,-5.69,0,*65
1487775730.62,1077,11.13,72410.5,-3.49,-5.69,-5.55,0,*60
1487775731.82,1078,11.06,72398.0,-3.49,-5.55,-5.55,0,*60
1487775733.01,1079,11.06,72396.0,-3.49,-5.47,-5.47,0,*61
1487775734.21,1080,11.13,72398.5,-3.49,-5.55,-5.47,0,*64
1487775735.46,1081,11.06,72400.8,-3.49,-5.81,-5.69,0,*60
1487775736.7,1082,11.06,72412.0,-3.49,-5.73,-5.61,0,*66
1487775737.89,1083,11.13,72422.3,-3.49,-5.35,-5.35,0,*64
1487775739.1,1084,11.13,72434.5,-3.51,-5.43,-5.47,0,*6E
1487775740.35,1085,11.06,72426.3,-3.53,-5.61,-5.65,0,*6D
1487775741.61,1086,11.06,72428.0,-3.51,-5.69,-5.73,0,*63
1487775742.88,1087,11.06,72406.0,-3.51,-5.69,-5.73,0,*62
1487775744.07,1088,11.13,72396.5,-3.53,-6.01,-6.01,0,*64
1487775745.26,1089,11.06,72386.8,-3.53,-6.01,-6.01,0,*65
1487775746.45,1090,11.06,72382.8,-3.53,-6.01,-6.05,0,*69
1487775747.65,1091,11.06,72370.3,-3.53,-6.01,-6.13,0,*6F
1487775748.84,1092,11.13,72358.0,-3.53,-5.97,-6.13,0,*60
1487775750.06,1093,11.13,72366.0,-3.55,-6.13,-6.31,0,*68
1487775751.3,1094,11.13,72372.5,-3.55,-6.13,-6.19,0,*65
1487775752.54,1095,11.13,72378.8,-3.55,-6.05,-6.19,0,*63
1487775753.76,1096,11.06,72394.3,-3.55,-6.01,-6.05,0,*69
1487775754.97,1097,11.06,72398.5,-3.55,-5.97,-6.13,0,*63
1487775756.18,1098,11.13,72402.5,-3.55,-6.01,-6.01,0,*63
1487775757.4,1099,11.13,72398.5,-3.57,-6.19,-6.05,0,*6D
1487775758.62,1100,11.13,72382.8,-3.57,-6.23,-6.09,0,*69
1487775759.84,1101,11.06,72372.5,-3.57,-6.35,-6.19,0,*6E
1487775761.06,1102,11.06,72374.0,-3.57,-6.23,-6.09,0,*6B
1487775762.26,1103,11.06,72392.0,-3.57,-6.59,-6.43,0,*69
1487775763.45,1104,11.13,72396.0,-3.57,-6.55,-6.35,0,*63
1487775764.67,1105,11.13,72398.8,-3.57,-6.47,-6.23,0,*66
1487775765.86,1106,11.13,72398.8,-3.57,-6.55,-6.09,0,*6E
1487775767.06,1107,11.13,72418.8,-3.57,-6.35,-6.01,0,*61
1487775768.26,1108,11.13,72408.3,-3.57,-6.09,-6.01,0,*61
1487775769.45,1109,11.13,72396.5,-3.57,-6.09,-6.05,0,*64
1487775770.7,1110,11.06,72396.3,-3.61,-5.85,-5.73,0,*6C
1487775771.97,1111,11.13,72392.3,-3.59,-5.81,-5.69,0,*69
1487775773.22,1112,11.06,72396.8,-3.59,-5.65,-5.51,0,*6B
1487775774.49,1113,11.06,72398.8,-3.59,-5.81,-5.65,0,*67
1487775775.76,1114,11.06,72392.5,-3.59,-5.65,-5.65,0,*6A
1487775777.0,1115,11.06,72398.5,-3.61,-5.69,-5.69,0,*60
1487775778.25,1116,11.06,72388.8,-3.61,-5.69,-5.61,0,*6B
1487775779.48,1117,11.13,72392.0,-3.59,-5.55,-5.43,0,*6E
1487775780.75,1118,11.06,72384.5,-3.59,-5.69,-5.69,0,*66
1487775782.0,1119,11.13,72382.3,-3.61,-5.85,-5.81,0,*68
1487775783.27,1120,11.06,72392.3,-3.59,-5.69,-5.65,0,*61
1487775784.54,1121,11.06,72396.3,-3.59,-5.89,-5.93,0,*67
1487775785.79,1122,11.06,72376.3,-3.61,-5.81,-5.85,0,*60
1487775787.04,1123,11.13,72390.5,-3.61,-5.69,-5.69,0,*65
1487775788.31,1124,11.06,72390.5,-3.59,-5.69,-5.69,0,*69
1487775789.54,1125,11.13,72396.3,-3.61,-5.73,-5.73,0,*63
1487775790.79,1126,11.06,72386.3,-3.61,-5.69,-5.73,0,*6B
1487775792.04,1127,11.13,72378.3,-3.59,-5.55,-5.65,0,*69
1487775793.28,1128,11.13,72370.8,-3.65,-5.65,-5.65,0,*6A
1487775794.53,1129,11.06,72354.8,-3.65,-5.77,-5.73,0,*6F
1487775795.77,1130,11.13,72362.8,-3.65,-5.77,-5.73,0,*67
1487775797.04,1131,11.13,72386.0,-3.59,-5.69,-5.69,0,*6D
1487775798.24,1132,11.06,72386.5,-3.61,-5.55,-5.47,0,*66
1487775799.46,1133,11.06,72384.3,-3.61,-5.43,-5.31,0,*61
1487775800.66,1134,11.06,72382.3,-3.65,-5.35,-5.39,0,*6B
1487775801.88,1135,11.06,72380.5,-3.61,-5.47,-5.61,0,*66
1487775803.13,1136,11.06,72384.0,-3.61,-5.81,-5.81,0,*61
1487775804.38,1137,11.06,72374.3,-3.61,-5.81,-5.81,0,*60
1487775805.57,1138,11.06,72380.0,-3.61,-5.97,-5.97,0,*6F
1487775806.76,1139,11.13,72362.0,-3.61,-6.09,-5.97,0,*6A
1487775807.98,1140,11.06,72358.8,-3.65,-6.23,-5.97,0,*68
1487775809.17,1141,11.06,72352.3,-3.65,-6.31,-5.97,0,*6A
1487775810.4,1142,11.06,72356.8,-3.65,-6.13,-5.89,0,*66
1487775811.62,1143,11.13,72358.0,-3.65,-6.09,-5.77,0,*6D
1487775812.87,1144,11.13,72362.8,-3.67,-6.01,-5.77,0,*60
1487775814.12,1145,11.13,72368.8,-3.67,-6.01,-5.89,0,*60
1487775815.34,1146,11.06,72374.3,-3.65,-6.09,-5.89,0,*69
1487775816.6,1147,11.06,72380.8,-3.67,-6.09,-5.89,0,*6A
1487775817.82,1148,11.13,72374.0,-3.65,-6.01,-5.85,0,*63
1487775819.04,1149,11.06,72360.0,-3.65,-5.97,-5.73,0,*67
1487775820.29,1150,11.06,72354.0,-3.67,-5.97,-5.77,0,*69
1487775821.48,1151,11.06,72352.8,-3.65,-6.13,-5.97,0,*6B
1487775822.7,1152,11.06,72354.8,-3.67,-6.09,-6.01,0,*6D
1487775823.92,1153,11.06,72374.3,-3.67,-6.09,-5.97,0,*60
1487775825.18,1154,11.06,72352.8,-3.67,-5.97,-5.85,0,*60
1487775826.45,1155,11.06,72350.3,-3.67,-5.89,-5.77,0,*63
1487775827.72,1156,11.06,72352.5,-3.67,-5.85,-5.73,0,*68
1487775828.94,1157,11.06,72338.5,-3.67,-6.01,-5.97,0,*6C
1487775830.19,1158,11.06,72348.0,-3.67,-5.97,-5.85,0,*6C
1487775831.43,1159,11.06,72356.3,-3.65,-5.73,-5.65,0,*6B
1487775832.7,1160,11.13,72370.3,-3.67,-5.73,-5.61,0,*67
1487775833.95,1161,11.13,72386.5,-3.69,-5.89,-5.81,0,*63
1487775835.19,1162,11.13,72384.0,-3.69,-5.81,-5.77,0,*61
1487775836.44,1163,11.06,72404.8,-3.69,-5.77,-5.65,0,*6A
1487775837.67,1164,11.06,72408.8,-3.71,-5.55,-5.55,0,*67
1487775838.87,1165,11.06,72418.0,-3.69,-5.51,-5.51,0,*6F
1487775840.06,1166,11.06,72410.8,-3.69,-5.39,-5.39,0,*6C
1487775841.26,1167,11.06,72388.8,-3.69,-5.55,-5.43,0,*6A
1487775842.49,1168,11.06,72376.3,-3.69,-5.35,-5.27,0,*61
1487775843.68,1169,11.06,72394.3,-3.69,-5.35,-5.35,0,*63
1487775844.9,1170,11.06,72402.0,-3.71,-5.51,-5.51,0,*62
1487775846.13,1171,11.06,72396.3,-3.69,-5.65,-5.51,0,*6D
1487775847.32,1172,11.06,72404.8,-3.69,-5.43,-5.39,0,*64
1487775848.54,1173,11.06,72404.8,-3.67,-5.47,-5.39,0,*6F
1487775849.82,1174,11.06,72410.5,-3.67,-5.65,-5.61,0,*65
1487775851.07,1175,11.06,72412.3,-3.69,-5.69,-5.69,0,*6E
1487775852.31,1176,11.06,72404.5,-3.69,-5.65,-5.65,0,*6D
1487775853.52,1177,11.06,72406.5,-3.69,-5.55,-5.55,0,*6C
1487775854.77,1178,11.13,72416.8,-3.69,-5.77,-5.69,0,*6C
1487775856.01,1179,11.06,72418.3,-3.69,-5.89,-5.81,0,*6A
1487775857.26,1180,11.06,72422.0,-3.69,-5.65,-5.65,0,*64
1487775858.46,1181,11.13,72416.0,-3.69,-5.51,-5.51,0,*65
1487775859.67,1182,11.06,72412.0,-3.69,-5.55,-5.55,0,*66
1487775860.94,1183,11.06,72412.0,-3.71,-5.65,-5.69,0,*62
1487775862.21,1184,11.06,72408.5,-3.71,-5.65,-5.65,0,*69
1487775863.43,1185,11.06,72414.0,-3.71,-5.51,-5.51,0,*68
1487775864.67,1186,11.06,72416.3,-3.71,-5.35,-5.27,0,*68
1487775865.87,1187,11.06,72420.0,-3.69,-5.35,-5.39,0,*6F
1487775867.08,1188,11.06,72414.5,-3.71,-5.35,-5.35,0,*65
1487775868.33,1189,11.06,72414.0,-3.69,-5.27,-5.27,0,*6D
1487775869.6,1190,11.06,72412.0,-3.71,-5.69,-5.65,0,*60
1487775870.81,1191,11.06,72396.3,-3.71,-5.43,-5.43,0,*6D
1487775872.02,1192,11.06,72402.5,-3.71,-5.39,-5.39,0,*6E
1487775873.26,1193,11.06,72402.5,-3.71,-5.27,-5.35,0,*6C
1487775874.47,1194,11.06,72388.5,-3.71,-5.43,-5.39,0,*65
1487775875.69,1195,11.06,72402.0,-3.71,-5.39,-5.43,0,*64
1487775876.94,1196,11.06,72406.8,-3.69,-5.27,-5.27,0,*63
1487775878.2,1197,11.06,72408.5,-3.69,-5.23,-5.23,0,*62
1487775879.41,1198,11.06,72398.0,-3.69,-5.27,-5.39,0,*62
1487775880.61,1199,11.06,72388.8,-3.69,-5.43,-5.43,0,*6C
1487775881.8,1200,11.06,72402.5,-3.69,-5.35,-5.39,0,*63
1487775882.99,1201,11.06,72410.0,-3.69,-5.35,-5.43,0,*6F
1487775884.19,1202,11.13,72412.8,-3.69,-5.39,-5.51,0,*63
1487775885.41,1203,11.06,72412.0,-3.69,-5.51,-5.65,0,*6B
1487775886.67,1204,11.06,72404.0,-3.67,-5.47,-5.61,0,*61
1487775887.91,1205,11.06,72412.3,-3.67,-5.39,-5.65,0,*6D
1487775889.19,1206,11.06,72422.3,-3.67,-5.61,-5.85,0,*6D
1487775890.38,1207,11.06,72414.0,-3.69,-6.05,-6.13,0,*6F
1487775891.59,1208,11.06,72412.0,-3.69,-6.13,-6.23,0,*64
1487775892.81,1209,11.06,72422.0,-3.67,-6.09,-6.09,0,*68
1487775894.06,1210,11.06,72428.5,-3.67,-6.19,-6.09,0,*61
1487775895.3,1211,11.06,72434.3,-3.67,-6.27,-6.01,0,*65
1487775896.52,1212,11.06,72430.0,-3.67,-6.31,-5.97,0,*6D
1487775897.71,1213,11.06,72410.0,-3.69,-6.13,-6.01,0,*6E
1487775898.94,1214,11.06,72414.3,-3.69,-6.13,-5.93,0,*61
1487775900.15,1215,11.06,72418.3,-3.69,-6.23,-6.05,0,*6F
1487775901.37,1216,11.06,72414.8,-3.69,-6.23,-6.05,0,*6C
1487775902.59,1217,11.06,72412.8,-3.69,-6.19,-6.05,0,*64
1487775903.81,1218,11.06,72422.8,-3.69,-6.19,-6.01,0,*6F
1487775905.05,1219,11.06,72394.0,-3.71,-6.19,-6.05,0,*63
1487775906.27,1220,11.13,72402.8,-3.69,-6.13,-5.93,0,*66
1487775907.49,1221,11.06,72390.5,-3.69,-6.05,-5.89,0,*6B
1487775908.73,1222,11.06,72384.0,-3.71,-6.19,-6.05,0,*6B
1487775910.0,1223,11.06,72382.8,-3.71,-5.93,-5.77,0,*6D
1487775911.25,1224,11.06,72382.8,-3.69,-5.93,-5.69,0,*6C
1487775912.49,1225,11.06,72374.3,-3.69,-5.77,-5.77,0,*68
1487775913.76,1226,11.06,72364.8,-3.71,-5.81,-5.77,0,*6B
1487775915.01,1227,11.06,72354.3,-3.69,-5.93,-5.89,0,*61
1487775916.26,1228,11.06,72356.8,-3.69,-5.89,-5.81,0,*6D
1487775917.52,1229,11.06,72368.5,-3.71,-5.89,-5.93,0,*66
1487775918.79,1230,11.06,72358.3,-3.71,-5.81,-5.89,0,*6D
1487775920.0,1231,11.06,72378.8,-3.71,-6.05,-6.05,0,*64
1487775921.25,1232,11.06,72372.8,-3.71,-6.23,-6.31,0,*64
1487775922.51,1233,11.06,72408.0,-3.73,-6.27,-6.27,0,*64
1487775923.76,1234,11.06,72410.5,-3.73,-6.47,-6.27,0,*65
1487775924.98,1235,11.06,72410.8,-3.73,-6.77,-6.47,0,*61
1487775926.18,1236,11.06,72426.3,-3.75,-6.77,-6.35,0,*61
1487775927.42,1237,11.06,72406.5,-3.73,-6.73,-6.27,0,*61
1487775928.64,1238,11.06,72416.3,-3.75,-6.77,-6.23,0,*68
1487775929.86,1239,11.06,72434.3,-3.73,-6.35,-6.05,0,*6D
1487775931.08,1240,11.06,72438.8,-3.73,-6.35,-5.97,0,*6B
1487775932.32,1241,11.06,72442.5,-3.75,-6.27,-5.93,0,*6B
1487775933.59,1242,11.06,72448.8,-3.73,-6.23,-5.93,0,*6A
1487775934.84,1243,11.06,72422.8,-3.73,-6.05,-5.73,0,*61
1487775936.09,1244,11.06,72436.0,-3.73,-5.97,-5.61,0,*6D
1487775937.37,1245,11.06,72430.5,-3.73,-5.93,-5.61,0,*68
1487775938.61,1246,11.06,72428.8,-3.73,-6.05,-5.69,0,*6F
1487775939.85,1247,11.06,72424.0,-3.73,-6.05,-5.73,0,*65
1487775941.1,1248,11.06,72428.0,-3.75,-5.93,-5.69,0,*6B
1487775942.38,1249,11.06,72424.5,-3.73,-5.81,-5.61,0,*67
1487775943.63,1250,11.06,72428.8,-3.73,-5.81,-5.55,0,*68
1487775944.86,1251,11.06,72428.3,-3.73,-5.55,-5.47,0,*63
1487775946.08,1252,11.06,72430.8,-3.71,-5.55,-5.43,0,*66
1487775947.3,1253,11.06,72436.3,-3.73,-5.47,-5.39,0,*6B
1487775948.52,1254,11.06,72426.3,-3.73,-5.47,-5.43,0,*61
1487775949.79,1255,11.06,72430.0,-3.71,-5.65,-5.65,0,*66
1487775951.04,1256,11.06,72448.8,-3.73,-5.69,-5.55,0,*68
1487775952.32,1257,11.06,72442.3,-3.73,-5.61,-5.61,0,*66
1487775953.57,1258,11.06,72436.5,-3.73,-5.61,-5.55,0,*6E
1487775954.8,1259,11.06,72436.3,-3.73,-5.55,-5.47,0,*6B
1487775956.07,1260,11.06,72444.3,-3.73,-5.61,-5.61,0,*62
1487775957.33,1261,11.06,72440.3,-3.73,-5.55,-5.61,0,*64
1487775958.59,1262,11.06,72422.0,-3.73,-5.73,-5.73,0,*60
1487775959.83,1263,11.06,72412.8,-3.75,-5.69,-5.69,0,*67
1487775961.11,1264,11.06,72392.8,-3.73,-5.69,-5.69,0,*66
1487775962.3,1265,11.06,72376.8,-3.75,-5.47,-5.47,0,*61
1487775963.57,1266,11.06,72358.3,-3.73,-5.61,-5.69,0,*6C
1487775964.8,1267,11.06,72362.8,-3.73,-5.55,-5.55,0,*65
1487775966.08,1268,11.06,72366.8,-3.73,-5.81,-5.81,0,*6A
1487775967.32,1269,11.06,72368.0,-3.75,-5.69,-5.69,0,*6D
1487775968.57,1270,11.06,72376.0,-3.75,-5.69,-5.69,0,*65
1487775969.81,1271,11.06,72382.0,-3.75,-5.69,-5.69,0,*64
1487775971.09,1272,11.06,72378.8,-3.73,-5.61,-5.61,0,*61
1487775972.36,1273,11.06,72374.8,-3.73,-5.61,-5.61,0,*60
1487775973.6,1274,11.06,72372.5,-3.75,-5.61,-5.61,0,*61
1487775974.83,1275,11.06,72370.0,-3.73,-5.55,-5.39,0,*6C
1487775976.08,1276,11.06,72374.3,-3.73,-5.43,-5.31,0,*60
1487775977.29,1277,11.06,72368.5,-3.73,-5.43,-5.39,0,*69
1487775978.52,1278,11.06,72374.0,-3.73,-5.55,-5.43,0,*6C
1487775979.71,1279,11.06,72382.8,-3.75,-5.47,-5.39,0,*65
1487775980.94,1280,11.06,72390.8,-3.73,-5.47,-5.43,0,*68
1487775982.13,1281,11.06,72396.5,-3.75,-5.47,-5.47,0,*6B
1487775983.4,1282,11.06,72402.8,-3.73,-5.61,-5.61,0,*6E
1487775984.65,1283,11.06,72408.0,-3.75,-5.81,-5.69,0,*6F
1487775985.92,1284,11.06,72410.3,-3.73,-5.69,-5.69,0,*68
1487775987.2,1285,11.06,72404.8,-3.73,-5.69,-5.61,0,*61
1487775988.45,1286,11.06,72406.5,-3.75,-5.31,-5.31,0,*6C
1487775989.7,1287,11.06,72404.3,-3.75,-5.31,-5.27,0,*6A
1487775990.89,1288,11.06,72406.5,-3.75,-5.47,-5.43,0,*66
1487775992.08,1289,11.06,72406.0,-3.75,-5.43,-5.39,0,*6E
1487775993.29,1290,11.06,72396.0,-3.75,-5.43,-5.31,0,*6E
1487775994.57,1291,11.06,72396.5,-3.73,-5.31,-5.27,0,*6B
1487775995.82,1292,11.06,72400.8,-3.75,-5.31,-5.27,0,*6E
1487775997.07,1293,11.06,72406.0,-3.75,-5.15,-5.19,0,*64
1487775998.35,1294,11.06,72412.0,-3.73,-5.15,-5.15,0,*69
1487775999.62,1295,11.06,72422.0,-3.73,-5.19,-5.15,0,*64
1487776000.9,1296,11.06,72422.3,-3.73,-5.19,-5.15,0,*67
1487776002.17,1297,11.06,72418.8,-3.73,-5.15,-5.15,0,*6A
1487776003.45,1298,11.06,72420.3,-3.73,-5.27,-5.19,0,*68
1487776004.73,1299,11.06,72428.8,-3.73,-5.19,-5.27,0,*69
1487776006.01,1300,11.06,72432.0,-3.73,-5.19,-5.07,0,*6A
1487776007.28,1301,11.06,72434.8,-3.73,-5.15,-5.15,0,*64
1487776008.56,1302,11.06,72434.3,-3.73,-5.19,-5.07,0,*68
1487776009.84,1303,11.06,72436.3,-3.73,-5.19,-5.19,0,*66
1487776011.12,1304,11.06,72436.5,-3.73,-5.15,-5.03,0,*66
1487776012.39,1305,11.06,72440.8,-3.73,-5.15,-5.15,0,*60
1487776013.67,1306,11.06,72442.0,-3.73,-5.27,-5.27,0,*63
1487776014.88,1307,11.06,72446.0,-3.71,-5.35,-5.35,0,*60
1487776016.13,1308,11.06,72446.8,-3.71,-5.35,-5.27,0,*6C
1487776017.4,1309,11.06,72448.5,-3.71,-5.27,-5.27,0,*6E
1487776018.68,1310,11.06,72442.3,-3.71,-5.23,-5.23,0,*66
1487776019.96,1311,11.06,72434.8,-3.73,-5.15,-5.27,0,*64
1487776021.23,1312,11.06,72442.5,-3.73,-5.15,-5.19,0,*6A
1487776022.47,1313,11.06,72428.8,-3.71,-5.27,-5.39,0,*6A
1487776023.75,1314,11.06,72418.3,-3.71,-5.27,-5.27,0,*62
1487776024.96,1315,11.06,72416.8,-3.71,-5.35,-5.35,0,*63
1487776026.24,1316,11.06,72408.0,-3.73,-5.31,-5.31,0,*62
1487776027.52,1317,11.06,72410.0,-3.73,-5.31,-5.31,0,*63
1487776028.76,1318,11.06,72408.5,-3.71,-5.39,-5.27,0,*61
1487776030.04,1319,11.06,72406.3,-3.73,-5.31,-5.31,0,*6D
1487776031.26,1320,11.06,72410.5,-3.73,-5.39,-5.39,0,*67
1487776032.53,1321,11.06,72412.3,-3.71,-5.27,-5.27,0,*64
1487776033.8,1322,11.06,72420.3,-3.71,-5.27,-5.23,0,*63
1487776035.08,1323,11.06,72430.5,-3.71,-5.27,-5.27,0,*66
1487776036.35,1324,11.06,72452.3,-3.71,-5.27,-5.27,0,*61
1487776037.59,1325,11.06,72456.5,-3.71,-5.55,-5.65,0,*63
1487776038.84,1326,11.06,72458.5,-3.71,-5.55,-5.65,0,*60
1487776040.11,1327,11.06,72468.0,-3.71,-5.65,-5.69,0,*6E
1487776041.38,1328,11.06,72472.0,-3.71,-5.65,-5.65,0,*6D
1487776042.65,1329,11.06,72456.8,-3.73,-5.61,-5.69,0,*66
1487776043.92,1330,11.06,72444.0,-3.73,-5.93,-5.93,0,*66
1487776045.14,1331,11.06,72432.8,-3.73,-5.97,-6.05,0,*6F
1487776046.39,1332,11.06,72446.3,-3.75,-5.81,-5.85,0,*66
1487776047.66,1333,11.06,72448.3,-3.73,-5.69,-5.69,0,*65
1487776048.9,1334,11.06,72438.0,-3.75,-5.81,-5.73,0,*69
1487776050.15,1335,11.06,72430.3,-3.75,-5.81,-5.85,0,*61
1487776051.42,1336,11.06,72434.5,-3.73,-5.81,-5.81,0,*60
1487776052.67,1337,11.06,72438.0,-3.75,-5.69,-5.69,0,*67
1487776053.91,1338,11.06,72430.0,-3.75,-5.73,-5.85,0,*61
1487776055.09,1339,11.06,72390.5,-3.75,-6.05,-6.05,0,*69
1487776056.34,1340,11.06,72382.5,-3.75,-5.81,-5.93,0,*64
1487776057.6,1341,11.06,72396.3,-3.77,-5.73,-5.73,0,*64
1487776058.86,1342,11.06,72394.0,-3.77,-5.77,-5.77,0,*67
1487776060.09,1343,11.06,72422.5,-3.77,-6.27,-6.13,0,*61
1487776061.33,1344,11.06,72422.3,-3.77,-6.31,-6.27,0,*66
1487776062.58,1345,11.06,72440.3,-3.77,-6.31,-6.27,0,*67
1487776063.77,1346,11.06,72440.8,-3.79,-6.39,-6.31,0,*65
1487776064.96,1347,11.06,72414.3,-3.79,-6.51,-6.43,0,*6F
1487776066.2,1348,11.06,72410.8,-3.77,-6.63,-6.39,0,*62
1487776067.41,1349,11.06,72400.3,-3.79,-6.27,-6.13,0,*65
1487776068.62,1350,11.06,72400.0,-3.79,-6.27,-6.13,0,*6D
1487776069.83,1351,11.06,72388.8,-3.79,-6.27,-6.09,0,*67
1487776071.06,1352,11.06,72368.8,-3.77,-6.27,-6.13,0,*61
1487776072.27,1353,11.06,72360.5,-3.79,-6.39,-6.23,0,*62
1487776073.48,1354,11.06,72360.5,-3.79,-6.23,-6.01,0,*6E
1487776074.69,1355,11.06,72370.5,-3.79,-6.23,-5.97,0,*63
1487776075.93,1356,11.06,72372.0,-3.81,-6.27,-6.13,0,*6C
1487776077.17,1357,11.06,72370.3,-3.81,-6.27,-6.01,0,*6E
1487776078.42,1358,11.06,72364.3,-3.81,-6.13,-5.89,0,*65
1487776079.66,1359,11.06,72368.5,-3.81,-6.05,-5.93,0,*68
1487776080.9,1360,11.06,72368.8,-3.83,-5.89,-5.65,0,*6E
1487776082.16,1361,11.06,72378.5,-3.81,-5.69,-5.55,0,*60
1487776083.4,1362,11.06,72368.8,-3.81,-5.69,-5.51,0,*67
1487776084.65,1363,11.06,72384.3,-3.77,-5.65,-5.47,0,*64
1487776085.92,1364,11.06,72380.0,-3.81,-5.93,-5.93,0,*6A
1487776087.19,1365,11.06,72384.5,-3.81,-5.77,-5.69,0,*64
1487776088.44,1366,11.06,72370.0,-3.81,-5.77,-5.55,0,*68
1487776089.72,1367,11.06,72378.3,-3.81,-5.93,-5.81,0,*6A
1487776090.99,1368,11.06,72372.0,-3.81,-5.77,-5.69,0,*69
1487776092.21,1369,11.06,72376.5,-3.83,-5.69,-5.55,0,*6A
1487776093.48,1370,11.06,72370.0,-3.81,-5.89,-5.89,0,*6F
1487776094.73,1371,11.06,72356.3,-3.83,-5.77,-5.69,0,*63
1487776096.0,1372,11.06,72360.5,-3.81,-5.81,-5.77,0,*64
1487776097.26,1373,11.06,72356.5,-3.81,-5.81,-5.77,0,*65
1487776098.51,1374,11.06,72362.8,-3.83,-5.81,-5.77,0,*60
1487776099.75,1375,11.06,72364.3,-3.83,-5.81,-5.81,0,*68
1487776101.03,1376,11.06,72384.0,-3.81,-5.93,-5.81,0,*6A
1487776102.27,1377,11.06,72392.8,-3.83,-5.89,-5.81,0,*62
1487776103.52,1378,11.06,72374.8,-3.83,-5.89,-5.93,0,*6E
1487776104.76,1379,11.06,72406.8,-3.83,-5.81,-5.77,0,*6D
1487776106.0,1380,11.06,72388.8,-3.83,-5.65,-5.65,0,*62
1487776107.24,1381,11.06,72382.8,-3.83,-5.65,-5.69,0,*6F
1487776108.49,1382,11.06,72360.3,-3.83,-5.81,-5.81,0,*60
1487776109.73,1383,11.06,72364.8,-3.83,-5.77,-5.81,0,*68
1487776110.98,1384,11.06,72366.8,-3.83,-5.77,-5.69,0,*69
1487776112.22,1385,11.06,72356.8,-3.87,-5.81,-5.81,0,*63
1487776113.49,1386,11.06,72364.5,-3.89,-5.73,-5.77,0,*6A
1487776114.73,1387,11.06,72360.3,-3.87,-5.61,-5.81,0,*6F
1487776115.97,1388,11.06,72372.0,-3.87,-5.85,-5.93,0,*69
1487776117.19,1389,11.06,72342.3,-3.87,-5.85,-5.97,0,*6C
1487776118.46,1390,11.06,72360.3,-3.89,-6.23,-6.23,0,*69
1487776119.67,1391,11.06,72382.8,-3.87,-5.93,-6.05,0,*6A
1487776120.92,1392,11.06,72384.8,-3.87,-5.85,-5.81,0,*61
1487776122.17,1393,11.06,72392.5,-3.89,-5.89,-5.97,0,*65